Sitka, AK

9:56 PM AKST on February 20, 2017 (GMT -0900)
Sitka Rocky Gutierrez

Weather History for PASI - November, 2012

Change the Weather History Date:

Tuesday, November 6, 2012

  Actual Average Record
Temperature  
Mean Temperature 41 °F -  
Max Temperature 43 °F 45 °F 55 °F (2002)
Min Temperature 39 °F 36 °F 19 °F (1973)
Degree Days  
Heating Degree Days 24    
Moisture  
Dew Point 38 °F    
Average Humidity 86    
Maximum Humidity 93    
Minimum Humidity 79    
Precipitation  
Precipitation 0.27 in - - ()
Sea Level Pressure  
Sea Level Pressure 29.74 in    
Wind  
Wind Speed 7 mph (ESE)    
Max Wind Speed 14 mph    
Max Gust Speed -    
Visibility 10 miles    
Events Rain    
Averages and records for this station are not official NWS values.
T = Trace of Precipitation, MM = Missing Value Source: NWS Daily Summary

Daily Weather History Graph

Daily Weather History Graph

Search for Another Location

Airport or City:

Trip Planner

Search our weather history database for the weather conditions in past years. The results will help you decide how hot, cold, wet, or windy it might be!

Date:

Astronomy

Nov. 06, 2012 Rise Set
Actual Time 7:24 AM AKST 4:04 PM AKST
Civil Twilight 6:42 AM AKST 4:46 PM AKST
Nautical Twilight 5:56 AM AKST 5:32 PM AKST
Astronomical Twilight 5:12 AM AKST 6:17 PM AKST
Moon 11:08 PM AKST (11/6) 1:08 PM AKST (11/6)
Length of Visible Light 10h 03m
Length of Day
8h 39m
Waning Gibbous, 51% of the Moon is Illuminated
Nov 6
Waning Gibbous
Nov 6
Last Quarter
Nov 13
New
Nov 20
First Quarter
Nov 28
Full

Hourly Weather History & Observations

Time (AKST) Temp. Windchill Dew Point Humidity Pressure Visibility Wind Dir Wind Speed Gust Speed Precip Events Conditions
12:53 AM 42.1 °F 36.1 °F 39.0 °F 89% 29.87 in 9.0 mi ESE 10.4 mph - 0.00 in Rain Light Rain
1:53 AM 42.1 °F 34.9 °F 39.0 °F 89% 29.86 in 10.0 mi East 13.8 mph - 0.00 in   Overcast
3:35 AM 42.8 °F 38.0 °F 39.2 °F 87% 29.83 in 10.0 mi ESE 8.1 mph - 0.04 in   Overcast
3:53 AM 42.1 °F 36.6 °F 39.0 °F 89% 29.83 in 10.0 mi ESE 9.2 mph - 0.04 in   Overcast
4:53 AM 43.0 °F 36.8 °F 37.9 °F 82% 29.81 in 10.0 mi ESE 11.5 mph - N/A   Overcast
5:53 AM 42.1 °F 36.1 °F 39.0 °F 89% 29.80 in 7.0 mi ESE 10.4 mph - 0.02 in Rain Light Rain
6:53 AM 42.1 °F - 39.0 °F 89% 29.78 in 7.0 mi Calm Calm - 0.04 in Rain Light Rain
7:53 AM 42.1 °F - 37.9 °F 85% 29.76 in 10.0 mi Calm Calm - 0.01 in   Overcast
8:53 AM 42.1 °F - 39.9 °F 92% 29.75 in 10.0 mi Calm Calm - 0.00 in Rain Light Rain
9:53 AM 42.1 °F 37.7 °F 37.0 °F 82% 29.73 in 10.0 mi East 6.9 mph - 0.01 in Rain Light Rain
10:53 AM 42.1 °F 36.1 °F 36.0 °F 79% 29.72 in 10.0 mi East 10.4 mph - 0.00 in Rain Light Rain
11:53 AM 42.1 °F 39.2 °F 37.0 °F 82% 29.69 in 10.0 mi ESE 4.6 mph - 0.01 in Rain Light Rain
12:53 PM 43.0 °F - 37.0 °F 80% 29.68 in 10.0 mi Calm Calm - 0.00 in   Overcast
1:53 PM 43.0 °F - 39.0 °F 86% 29.67 in 10.0 mi Calm Calm - N/A   Overcast
2:53 PM 43.0 °F - 39.0 °F 86% 29.65 in 10.0 mi Calm Calm - N/A   Overcast
3:53 PM 43.0 °F 40.3 °F 37.0 °F 80% 29.65 in 8.0 mi ESE 4.6 mph - 0.03 in Rain Light Rain
4:53 PM 42.1 °F 38.4 °F 37.0 °F 82% 29.66 in 8.0 mi East 5.8 mph - 0.05 in Rain Light Rain
5:53 PM 41.0 °F 38.0 °F 37.9 °F 89% 29.66 in 10.0 mi ESE 4.6 mph - 0.05 in Rain Light Rain
6:53 PM 42.1 °F - 39.9 °F 92% 29.66 in 10.0 mi Calm Calm - 0.01 in   Overcast
7:53 PM 41.0 °F 36.4 °F 37.9 °F 89% 29.68 in 10.0 mi SE 6.9 mph - 0.00 in   Overcast
8:53 PM 43.0 °F 38.8 °F 37.0 °F 80% 29.70 in 10.0 mi SE 6.9 mph - 0.00 in   Overcast
9:53 PM 41.0 °F - 37.9 °F 89% 29.72 in 10.0 mi Calm Calm - N/A   Overcast
10:53 PM 39.9 °F 37.8 °F 37.9 °F 93% 29.73 in 10.0 mi NE 3.5 mph - N/A   Overcast
11:53 PM 42.1 °F 37.1 °F 37.9 °F 85% 29.75 in 10.0 mi SSE 8.1 mph - N/A   Overcast